Location: Lake Hudson State Recreational Area
(41.8372°N, 84.2445°W)
Time: 11:07:19
(UTC-05:00)

ISS - Visible Passes

Search period start: 15 December 2017 00:00
Search period end: 25 December 2017 00:00
Orbit: 402 x 407 km, 51.6° (Epoch: 15 December)

Date Brightness Start Highest point End Pass type
(mag) Time Alt. Az. Time Alt. Az. Time Alt. Az.
15 Dec -3.8 18:06:59 10° NW 18:10:17 85° SSW 18:13:33 10° SE visible
16 Dec -1.0 18:51:51 10° W 18:54:12 18° SW 18:56:33 10° S visible
17 Dec -2.0 17:59:04 10° WNW 18:02:05 34° SW 18:05:05 10° SSE visible
19 Dec -0.5 17:51:45 10° W 17:53:42 15° SW 17:55:38 10° SSW visible
24 Dec 0.0 07:03:58 10° SE 07:04:42 11° SE 07:05:25 10° ESE visible
